#timestamp,LO_Frequency,Hit,StdDev 
1538298015.8,286046993.7,P
1538298035.7,286046992.1,P
1538298055.5,286046990.1,P
1538298075.4,286046991.3,Y
1538298095.2,286046996.0,P
1538298115.0,286046991.9,P
1538298115.9,286046991.9,P
1538298135.8,286046992.7,Y
1538298155.6,286046994.9,P
1538298175.4,286046993.9,P
1538298195.3,286046992.5,P
1538298215.1,286046988.7,Y
1538298235.9,286046993.6,P
1538298255.7,286046992.5,P
1538298275.5,286046991.2,P
1538298295.4,286046987.6,Y
1538298315.2,286046991.7,P
1538298335.1,286046993.0,P
1538298336.0,286046993.0,P
1538298355.8,286046989.2,Y
1538298375.6,286046995.8,P
1538298395.5,286046994.0,P
1538298415.3,286046993.1,P
1538298435.1,286046991.6,Y
1538298455.9,286046993.7,P
1538298475.7,286046994.8,P
1538298495.6,286046992.7,P
1538298515.4,286046989.0,Y
1538298535.2,286046993.9,P
1538298555.1,286046991.7,P
1538298556.0,286046991.7,P
1538298575.8,286046993.2,Y
1538298595.6,286046997.3,P
1538298615.5,286046995.6,N
1538298635.3,286046994.2,P
1538298655.2,286046991.7,Y
1538298675.9,286046997.9,P
1538298695.7,286046995.6,P
1538298715.6,286046993.5,P
1538298735.4,286046994.3,Y
1538298755.3,286046996.8,P
1538298775.1,286046997.8,P
1538298776.0,286046997.8,N
1538298795.8,286046995.5,Y
1538298815.7,286046997.0,P
1538298835.5,286046997.1,P
1538298855.3,286046995.1,P
1538298875.2,286046995.7,Y
1538298895.0,286046999.2,P
1538298895.9,286046999.2,N
1538298915.8,286046999.2,N
1538298935.6,286046997.2,N
1538298955.4,286046995.1,Y
1538298975.3,286046997.1,P
1538298995.1,286046994.9,P
1538299015.9,286046995.2,P
1538299035.7,286046996.1,N
1538299055.5,286046993.6,Y
1538299075.4,286046999.2,P
1538299095.2,286046996.7,N
1538299115.0,286046997.5,N
1538299115.9,286046997.5,N
1538299135.8,286046997.6,N
1538299155.6,286046998.0,N
1538299175.5,286046995.0,Y
1538299195.3,286046999.3,P
1538299215.1,286046999.1,N
1538299235.9,286046997.0,P
1538299255.7,286046997.1,N
1538299275.5,286046997.1,N
1538299295.4,286046997.2,N
1538299315.2,286046997.9,N
1538299335.1,286046995.3,Y
1538299336.0,286046995.3,P
1538299355.8,286046999.1,N
1538299375.6,286046996.6,N
1538299395.5,286046997.1,N
1538299415.3,286046997.3,N
1538299435.1,286046997.9,N
1538299455.9,286046997.5,N
1538299475.7,286046995.4,Y
1538299495.6,286046998.6,P
1538299515.4,286046999.0,N
1538299535.2,286046999.0,N
1538299555.1,286046998.3,N
1538299556.0,286046998.3,N
1538299575.8,286046999.4,N
1538299595.6,286046998.7,N
1538299615.5,286046998.8,N
1538299635.3,286046999.4,N
1538299655.2,286046996.6,Y
1538299675.9,286046999.3,P
1538299695.7,286046998.7,P
1538299715.6,286046999.1,P
1538299735.4,286046997.0,Y
1538299755.3,286046999.2,P
1538299775.1,286046996.9,P
1538299776.0,286046996.9,P
1538299795.8,286046997.0,N
1538299815.7,286046997.0,N
1538299835.5,286046997.0,Y
1538299855.3,286047001.1,P
1538299875.2,286047000.6,N
1538299895.0,286046998.6,N
1538299895.9,286046998.6,N
1538299915.8,286046998.5,N
1538299935.6,286046998.9,N
1538299955.4,286046999.6,N
1538299975.3,286046995.3,Y
1538299995.1,286046997.4,P
1538300015.9,286046994.9,P
1538300035.7,286046996.2,N
1538300055.5,286046993.6,Y
1538300075.4,286046997.4,P
1538300095.2,286046997.3,P
1538300115.0,286046997.5,P
1538300115.9,286046997.5,Y
1538300135.8,286046998.6,P
1538300155.6,286046998.8,N
1538300175.5,286046999.3,N
1538300195.3,286046999.3,N
1538300215.1,286046998.2,N
1538300235.9,286047001.2,N
1538300255.7,286046998.5,N
1538300275.5,286046999.2,N
1538300295.4,286046997.0,Y
1538300315.2,286046998.7,P
1538300335.1,286046998.2,P
1538300336.0,286046998.2,P
1538300355.8,286046998.4,Y
1538300375.6,286047000.6,P
1538300395.5,286046998.2,N
1538300415.3,286046998.6,N
1538300435.1,286046999.2,N
1538300455.9,286046999.5,N
1538300475.7,286046997.3,Y
1538300495.6,286046996.6,P
1538300515.4,286046996.7,N
1538300535.2,286046996.9,N
1538300555.1,286046997.0,N
1538300556.0,286046997.0,Y
1538300575.8,286046998.3,P
1538300595.7,286046998.8,N
1538300615.5,286046996.7,P
1538300635.3,286046997.5,Y
1538300655.2,286046998.2,P
1538300675.0,286046998.6,P
1538300675.9,286046998.6,P
1538300695.7,286046999.3,N
1538300715.6,286046999.6,N
1538300735.4,286046998.9,N
1538300755.3,286046998.8,N
1538300775.1,286046996.5,Y
1538300776.0,286046996.5,P
1538300795.8,286047000.7,N
1538300815.7,286047000.7,N
1538300835.5,286047000.9,N
1538300855.3,286047000.0,N
1538300875.2,286047000.9,N
1538300895.0,286046998.8,N
1538300895.9,286046998.8,N
1538300915.8,286047000.2,N
1538300935.6,286046998.7,N
1538300955.4,286046998.1,N
1538300975.3,286047000.8,N
1538300995.1,286046998.1,N
1538301015.8,286046999.5,N
1538301035.7,286046997.1,N
1538301055.5,286046999.1,N
1538301075.4,286046999.6,N
1538301095.2,286046997.0,N
1538301115.0,286046997.9,N
1538301115.9,286046997.9,N
1538301135.8,286046994.9,Y
1538301155.6,286046997.7,P
1538301175.4,286046997.3,P
1538301195.3,286046997.4,P
1538301215.1,286046997.1,Y
1538301235.9,286047001.1,P
1538301255.7,286047000.8,N
1538301275.5,286046998.5,N
1538301295.4,286046998.3,N
1538301315.2,286047001.0,N
1538301335.0,286046998.6,N
1538301335.9,286046998.6,N
1538301355.8,286047001.1,N
1538301375.6,286047001.1,N
1538301395.5,286047000.9,N
1538301415.3,286047000.6,N
1538301435.1,286047000.2,N
1538301455.9,286047000.3,N
1538301475.7,286046999.9,N
1538301495.5,286047000.6,N
1538301515.4,286047000.5,N
1538301535.2,286047001.0,N
1538301555.1,286047000.4,N
1538301556.0,286047000.4,N
1538301575.8,286047001.1,N
1538301595.6,286046998.5,N
